Saint-Brieuc

France     48˚30′39″N   2˚45′31″W
temp.,
°C
wind,
m/s
gust,
m/s
humid.,
%
clouds,
%
prec.,
mm/h
press.,
hPa
HPBL,
m
28 november, sat
sat2801:00+9˚sse5119495 0.1 1011282
04:00+9˚sse4109469 0.0 1011236
07:00+8˚sse369474 0.0 1012136
10:00+9˚se489071 0.0 1012220
13:00+13˚ese477540 0.0 1013313
16:00+13˚ene477924 0.0 1013297
19:00+10˚e499049 0.0 1015248
22:00+8˚e38900 0.0 1017185
29 november, sun
sun2901:00+7˚e36854 0.0 1018123
04:00+6˚e347023 0.0 101987
07:00+5˚e347025 0.0 102073
10:00+7˚ene247221 0.0 1022121
13:00+11˚ene466211 0.0 1023357
16:00+11˚ne46717 0.0 1023323
19:00+8˚ne36853 0.0 1024131
22:00+7˚ene34860 0.0 1026101
30 november, mon
mon3001:00+6˚ene23860 0.0 102782
04:00+6˚ene22840 0.0 102773
07:00+6˚ene11840 0.0 102850
10:00+7˚e11815 0.0 102939
13:00+10˚ese116942 0.0 1029186
16:00+10˚nnw117541 0.0 102939
19:00+8˚nw238871 0.0 102980
22:00+8˚w3491100 0.0 102983
1 december, tue
tue101:00+9˚w4692100 0.0 1029174
04:00+10˚wnw4993100 0.0 1028377
07:00+10˚wnw4893100 0.1 1027402
10:00+10˚nw5992100 0.0 1027461
13:00+12˚nnw5783100 0.1 1026745
16:00+11˚nnw4684100 0.1 1025600
19:00+10˚nnw4791100 0.2 1026380
22:00+10˚nnw3693100 0.1 1026255
2 december, wed
wed201:00+10˚nnw2593100 0.3 1025235
04:00+9˚wnw349397 0.1 1024203
07:00+9˚wnw349597 0.1 1023145
10:00+9˚wnw369270 0.0 1023243
13:00+12˚wnw347937 0.0 1022537
16:00+11˚nw348254 0.1 1020535
19:00+10˚wnw258477 0.1 1019254
22:00+10˚w3583100 0.1 1018298